| time (UTC) | temp F | wind direction | speed MPH | gust MPH | rain 1hr in | rain 24hr in | rain mn in | humidity % | barometer mb |
| 20260901113043 | 67 | 0 | 0.0 | 0.0 | 0.00 | 0.01 | 0.00 | 100 | 1012.4 |
| 20260901111550 | 66 | 0 | 0.0 | 0.0 | 0.00 | 0.01 | 0.00 | 100 | 1012.3 |
| 20260901110045 | 66 | 0 | 0.0 | 0.0 | 0.00 | 0.01 | 0.00 | 100 | 1012.1 |
| 20260901104544 | 66 | 0 | 0.0 | 0.0 | 0.00 | 0.01 | 0.00 | 100 | 1012.1 |
| 20260901103044 | 66 | 0 | 0.0 | 0.0 | 0.00 | 0.01 | 0.00 | 100 | 1012.1 |
| 20260901101558 | 66 | 0 | 0.0 | 0.0 | 0.00 | 0.01 | 0.00 | 100 | 1012.2 |
| 20260901100050 | 66 | 0 | 0.0 | 0.0 | 0.00 | 0.01 | 0.00 | 100 | 1012.3 |
| 20260901094549 | 66 | 0 | 0.0 | 0.0 | 0.00 | 0.01 | 0.00 | 100 | 1012.5 |
| 20260901093045 | 66 | 0 | 0.0 | 0.0 | 0.00 | 0.01 | 0.00 | 100 | 1012.4 |
| 20260901091553 | 66 | 0 | 0.0 | 0.0 | 0.00 | 0.01 | 0.00 | 100 | 1012.3 |
| 20260901090045 | 66 | 0 | 0.0 | 0.0 | 0.00 | 0.01 | 0.00 | 100 | 1012.4 |
| 20260901084545 | 66 | 0 | 0.0 | 0.0 | 0.00 | 0.01 | 0.00 | 100 | 1012.0 |
| 20260901083046 | 66 | 0 | 0.0 | 0.0 | 0.00 | 0.01 | 0.00 | 100 | 1011.9 |
| 20260901081544 | 66 | 0 | 0.0 | 0.0 | 0.00 | 0.01 | 0.00 | 100 | 1011.9 |
| 20260901080136 | 66 | 0 | 0.0 | 0.0 | 0.00 | 0.01 | 0.00 | 100 | 1011.8 |
| 20260901074546 | 66 | 0 | 0.0 | 0.0 | 0.00 | 0.01 | 0.00 | 100 | 1011.9 |
| 20260901073045 | 66 | 0 | 0.0 | 0.0 | 0.00 | 0.01 | 0.00 | 100 | 1011.7 |
| 20260901071542 | 66 | 0 | 0.0 | 0.0 | 0.00 | 0.01 | 0.00 | 100 | 1011.7 |
| 20260901070045 | 66 | 0 | 0.0 | 0.0 | 0.00 | 0.01 | 0.00 | 100 | 1011.9 |
| 20260901064544 | 66 | 0 | 0.0 | 1.0 | 0.00 | 0.01 | 0.00 | 100 | 1011.8 |
| 20260901063055 | 66 | 0 | 0.0 | 1.0 | 0.00 | 0.01 | 0.00 | 100 | 1011.6 |
| 20260901061600 | 66 | 0 | 0.0 | 1.0 | 0.00 | 0.01 | 0.00 | 100 | 1011.5 |
| 20260901060046 | 66 | 0 | 0.0 | 1.0 | 0.00 | 0.01 | 0.00 | 100 | 1011.7 |
| 20260901054552 | 66 | 0 | 0.0 | 1.0 | 0.00 | 0.01 | 0.00 | 100 | 1011.4 |
| 20260901053041 | 66 | 0 | 0.0 | 0.0 | 0.00 | 0.01 | 0.00 | 100 | 1011.5 |
| 20260901051545 | 66 | 0 | 0.0 | 3.0 | 0.00 | 0.01 | 0.00 | 100 | 1011.4 |
| 20260901050045 | 66 | 220 | 0.0 | 2.0 | 0.00 | 0.01 | 0.00 | 100 | 1011.3 |
| 20260901044606 | 66 | 197 | 1.0 | 2.0 | 0.00 | 0.01 | 0.00 | 100 | 1011.5 |
| 20260901043043 | 66 | 216 | 1.0 | 4.0 | 0.00 | 0.01 | 0.00 | 100 | 1011.4 |
| 20260901041547 | 66 | 229 | 0.0 | 3.0 | 0.00 | 0.01 | 0.00 | 100 | 1011.5 |
| 20260901040057 | 66 | 204 | 1.0 | 2.0 | 0.00 | 0.01 | 0.00 | 100 | 1011.4 |
| 20260901034543 | 66 | 208 | 1.0 | 2.0 | 0.00 | 0.01 | 0.01 | 100 | 1011.3 |
| 20260901033042 | 66 | 214 | 1.0 | 3.0 | 0.00 | 0.01 | 0.01 | 100 | 1011.7 |
| 20260901031544 | 66 | 0 | 0.0 | 2.0 | 0.00 | 0.01 | 0.01 | 100 | 1011.5 |
| 20260901030042 | 66 | 233 | 1.0 | 3.0 | 0.00 | 0.01 | 0.01 | 100 | 1011.8 |
| 20260901024559 | 66 | 0 | 0.0 | 2.0 | 0.00 | 0.01 | 0.01 | 100 | 1012.0 |
| 20260901023048 | 66 | 0 | 0.0 | 2.0 | 0.00 | 0.01 | 0.01 | 100 | 1012.0 |
| 20260901021603 | 66 | 0 | 0.0 | 2.0 | 0.00 | 0.01 | 0.01 | 100 | 1012.2 |
| 20260901020044 | 67 | 215 | 0.0 | 2.0 | 0.00 | 0.01 | 0.01 | 100 | 1012.1 |
| 20260901014551 | 67 | 203 | 0.0 | 2.0 | 0.00 | 0.01 | 0.01 | 100 | 1012.1 |
| 20260901013046 | 67 | 205 | 0.0 | 2.0 | 0.00 | 0.01 | 0.01 | 100 | 1011.8 |
| 20260901011543 | 67 | 224 | 0.0 | 2.0 | 0.00 | 0.01 | 0.01 | 100 | 1012.0 |
| 20260901010045 | 67 | 224 | 0.0 | 2.0 | 0.00 | 0.01 | 0.01 | 100 | 1012.0 |
| 20260901004548 | 67 | 225 | 0.0 | 3.0 | 0.00 | 0.01 | 0.01 | 99 | 1011.8 |
| 20260901003049 | 67 | 0 | 0.0 | 1.0 | 0.00 | 0.01 | 0.01 | 99 | 1011.7 |
| 20260901001545 | 67 | 229 | 0.0 | 2.0 | 0.00 | 0.01 | 0.01 | 99 | 1011.6 |
| 20260901000045 | 67 | 0 | 0.0 | 0.0 | 0.00 | 0.01 | 0.01 | 99 | 1011.4 |
| 20260831234543 | 67 | 0 | 0.0 | 0.0 | 0.00 | 0.01 | 0.01 | 99 | 1011.5 |
| 20260831233042 | 67 | 0 | 0.0 | 1.0 | 0.00 | 0.01 | 0.01 | 98 | 1011.4 |
| 20260831231600 | 68 | 83 | 0.0 | 2.0 | 0.00 | 0.01 | 0.01 | 98 | 1011.7 |
| 20260831230046 | 68 | 0 | 0.0 | 0.0 | 0.00 | 0.01 | 0.01 | 97 | 1011.7 |
| 20260831224611 | 68 | 273 | 0.0 | 1.0 | 0.00 | 0.01 | 0.01 | 97 | 1011.4 |
| 20260831223044 | 68 | 234 | 0.0 | 2.0 | 0.00 | 0.01 | 0.01 | 97 | 1011.5 |
| 20260831221558 | 68 | 0 | 0.0 | 1.0 | 0.00 | 0.01 | 0.01 | 96 | 1011.7 |
| 20260831220048 | 69 | 221 | 0.0 | 2.0 | 0.00 | 0.01 | 0.01 | 96 | 1011.4 |
| 20260831214548 | 69 | 0 | 0.0 | 2.0 | 0.00 | 0.01 | 0.01 | 95 | 1011.4 |
| 20260831213042 | 69 | 245 | 0.0 | 2.0 | 0.00 | 0.01 | 0.01 | 95 | 1011.3 |
| 20260831211601 | 69 | 0 | 0.0 | 1.0 | 0.00 | 0.01 | 0.01 | 95 | 1011.4 |
| 20260831210054 | 69 | 83 | 0.0 | 3.0 | 0.00 | 0.01 | 0.01 | 95 | 1011.8 |
| 20260831204543 | 70 | 89 | 0.0 | 2.0 | 0.00 | 0.01 | 0.01 | 94 | 1011.6 |
| 20260831203045 | 70 | 249 | 0.0 | 2.0 | 0.00 | 0.01 | 0.01 | 94 | 1011.8 |
| 20260831201553 | 69 | 243 | 0.0 | 2.0 | 0.00 | 0.01 | 0.01 | 94 | 1012.0 |
| 20260831200043 | 69 | 0 | 0.0 | 3.0 | 0.00 | 0.01 | 0.01 | 94 | 1012.2 |
| 20260831194554 | 69 | 297 | 0.0 | 4.0 | 0.00 | 0.01 | 0.01 | 96 | 1012.1 |
| 20260831193049 | 69 | 148 | 0.0 | 3.0 | 0.00 | 0.01 | 0.01 | 95 | 1012.3 |
| 20260831191549 | 69 | 153 | 1.0 | 4.0 | 0.00 | 0.01 | 0.01 | 94 | 1012.5 |
| 20260831190047 | 69 | 0 | 0.0 | 3.0 | 0.00 | 0.01 | 0.01 | 95 | 1012.4 |
| 20260831184542 | 69 | 41 | 0.0 | 2.0 | 0.00 | 0.01 | 0.01 | 95 | 1012.4 |
| 20260831183047 | 68 | 0 | 0.0 | 1.0 | 0.00 | 0.01 | 0.01 | 97 | 1012.5 |
| 20260831181544 | 67 | 297 | 0.0 | 2.0 | 0.00 | 0.01 | 0.01 | 97 | 1013.0 |
| 20260831180048 | 68 | 29 | 0.0 | 1.0 | 0.00 | 0.01 | 0.01 | 97 | 1013.2 |
| 20260831174550 | 67 | 0 | 0.0 | 2.0 | 0.00 | 0.01 | 0.01 | 98 | 1013.1 |
| 20260831173047 | 67 | 304 | 0.0 | 3.0 | 0.00 | 0.01 | 0.01 | 99 | 1013.0 |
| 20260831171551 | 67 | 0 | 0.0 | 5.0 | 0.00 | 0.01 | 0.01 | 99 | 1012.9 |
| 20260831170044 | 66 | 0 | 0.0 | 2.0 | 0.00 | 0.01 | 0.01 | 100 | 1012.9 |
| 20260831164549 | 66 | 281 | 0.0 | 4.0 | 0.00 | 0.01 | 0.01 | 100 | 1013.2 |
| 20260831163042 | 66 | 276 | 0.0 | 1.0 | 0.00 | 0.01 | 0.01 | 100 | 1013.1 |
| 20260831161550 | 66 | 315 | 0.0 | 0.0 | 0.00 | 0.01 | 0.01 | 100 | 1013.3 |
| 20260831160046 | 66 | 0 | 0.0 | 2.0 | 0.00 | 0.01 | 0.01 | 100 | 1013.4 |
| 20260831154622 | 66 | 0 | 0.0 | 3.0 | 0.01 | 0.01 | 0.01 | 100 | 1013.7 |
| 20260831153049 | 66 | 53 | 0.0 | 4.0 | 0.01 | 0.01 | 0.01 | 100 | 1013.4 |
| 20260831151606 | 65 | 0 | 0.0 | 3.0 | 0.01 | 0.01 | 0.01 | 100 | 1013.6 |
| 20260831150043 | 65 | 286 | 0.0 | 3.0 | 0.01 | 0.01 | 0.01 | 100 | 1013.8 |
| 20260831144543 | 65 | 292 | 1.0 | 3.0 | 0.00 | 0.00 | 0.00 | 100 | 1013.8 |
| 20260831143042 | 65 | 271 | 0.0 | 3.0 | 0.00 | 0.00 | 0.00 | 100 | 1013.9 |
| 20260831141548 | 65 | 278 | 0.0 | 5.0 | 0.00 | 0.00 | 0.00 | 100 | 1014.0 |
| 20260831140042 | 65 | 268 | 0.0 | 5.0 | 0.00 | 0.00 | 0.00 | 100 | 1014.0 |
| 20260831134549 | 65 | 223 | 0.0 | 8.0 | 0.00 | 0.00 | 0.00 | 100 | 1014.2 |
| 20260831133052 | 65 | 217 | 1.0 | 4.0 | 0.00 | 0.00 | 0.00 | 99 | 1014.1 |
| 20260831131552 | 66 | 275 | 1.0 | 3.0 | 0.00 | 0.00 | 0.00 | 99 | 1014.0 |
| 20260831130057 | 66 | 112 | 1.0 | 4.0 | 0.00 | 0.00 | 0.00 | 99 | 1013.8 |
| 20260831124550 | 66 | 63 | 1.0 | 3.0 | 0.00 | 0.00 | 0.00 | 99 | 1013.4 |
| 20260831123049 | 66 | 267 | 0.0 | 3.0 | 0.00 | 0.00 | 0.00 | 99 | 1013.6 |
| 20260831121551 | 66 | 0 | 0.0 | 3.0 | 0.00 | 0.00 | 0.00 | 99 | 1013.5 |
| 20260831120044 | 65 | 110 | 0.0 | 3.0 | 0.00 | 0.00 | 0.00 | 99 | 1013.3 |
| 20260831114543 | 65 | 86 | 0.0 | 4.0 | 0.00 | 0.00 | 0.00 | 99 | 1013.3 |